Terminal Aerodrome Forecast
Issued by NWS

Home | Current Version | Previous Version | Text Only | Print | Product List | Glossary On
Versions: 1 2 3 4 5 6 7 8 9 10 11 12 13 14 15 16 17 18 19 20 21 22 23 24 25 26 27 28 29 30 31 32 33 34 35 36 37 38 39 40 41 42 43 44 45 46
000
FTUS43 KGRB 231200 AAA
TAFRHI
TAF AMD
KRHI 231257Z 2313/2412 08004KT 4SM BR SCT004 OVC008
      TEMPO 2313/2315 2SM BR BKN004
     FM231600 10008KT 6SM BR SCT008 BKN015
     FM231900 10006KT P6SM BKN024
     FM240100 05004KT 6SM BR OVC013
     FM240400 05003KT 4SM BR OVC006
     FM240700 05004KT 1SM BR OVC003=

USA.gov is the U.S. government's official web portal to all federal, state and local government web resources and services.